This demonstration page uses our WeatherBlox Daily Observations layout. Learn more.

Left ArrowRight Arrow

41.12389, -100.76542

Hourly Observations for January 4, 2018

Temp ( °F °C ) Dew Point ( °F °C ) Humidity (%) Winds ( mph kmh ) Pressure ( in mb ) Visibility ( mi km ) Precip ( " mm )
12:53 am 00:53 Clear 20 -6.7 17 -8.3 89 89 Calm 30.32 1027 10 16 0.00 0.00
1:53 am 01:53 Cloudy 20 -6.7 18 -7.8 92 92 Calm 30.31 1026 10 16 0.00 0.00
2:53 am 02:53 Cloudy 22 -5.6 19 -7.2 89 89 Calm 30.30 1026 10 16 0.00 0.00
3:53 am 03:53 Cloudy 21 -6.1 18 -7.8 88 88 Calm 30.29 1026 10 16 0.00 0.00
4:53 am 04:53 Mostly Cloudy 20 -6.7 18 -7.8 92 92 E 3 6 30.29 1026 10 16 0.00 0.00
5:53 am 05:53 Clear with Mist and Fog 14 -10 12 -11.1 92 92 WNW 3 6 30.31 1026 5 8 0.00 0.00
6:53 am 06:53 Clear with Mist and Fog 13 -10.6 12 -11.1 96 96 WSW 3 6 30.31 1026 6 10 0.00 0.00
7:53 am 07:53 Clear with Mist and Fog 11 -11.7 9 -12.8 92 92 Calm 30.31 1026 3 5 0.00 0.00
7:55 am 07:55 Clear with Mist and Fog 10 -12.2 8 -13.3 92 92 Calm 30.42 1030 2 3 0.00 0.00
7:58 am 07:58 Clear with Mist and Fog 9 -12.8 8 -13.3 96 96 Calm 30.42 1030 1 1 0.00 0.00
8:14 am 08:14 Sunny with Mist and Fog 9 -12.8 8 -13.3 96 96 NW 3 6 30.42 1030 2 2 0.00 0.00
8:22 am 08:22 Sunny 10 -12.2 7 -13.9 87 87 Calm 30.42 1030 7 11 0.00 0.00
8:53 am 08:53 Sunny 10 -12.2 8 -13.3 92 92 WNW 7 11 30.32 1027 9 14 0.00 0.00
10:53 am 10:53 Sunny 24 -4.4 16 -8.9 71 71 WNW 7 11 30.30 1026 10 16 0.00 0.00
11:53 am 11:53 Sunny 28 -2.2 19 -7.2 69 69 WNW 6 9 30.28 1026 10 16 0.00 0.00
12:53 pm 12:53 Sunny 33 0.6 22 -5.6 64 64 WNW 12 19 30.25 1024 10 16 0.00 0.00
1:53 pm 13:53 Sunny 36 2.2 24 -4.4 62 62 W 7 11 30.23 1024 10 16 0.00 0.00
2:53 pm 14:53 Sunny 38 3.3 26 -3.3 62 62 W 7 11 30.21 1023 10 16 0.00 0.00
3:53 pm 15:53 Sunny 39 3.9 27 -2.8 62 62 W 7 11 30.21 1023 10 16 0.00 0.00
4:53 pm 16:53 Sunny 36 2.2 27 -2.8 70 70 W 5 7 30.23 1024 10 16 0.00 0.00
5:53 pm 17:53 Clear 32 0 26 -3.3 79 79 NW 7 11 30.25 1024 10 16 0.00 0.00
6:53 pm 18:53 Clear 30 -1.1 25 -3.9 82 82 WNW 6 9 30.27 1025 10 16 0.00 0.00
7:53 pm 19:53 Clear 24 -4.4 22 -5.6 91 91 WNW 6 9 30.30 1026 10 16 0.00 0.00
8:53 pm 20:53 Clear 22 -5.6 19 -7.2 89 89 W 5 7 30.31 1027 7 11 0.00 0.00
9:53 pm 21:53 Clear 21 -6.1 20 -6.7 96 96 NNW 3 6 30.30 1026 10 16 0.00 0.00
10:53 pm 22:53 Clear 17 -8.3 17 -8.3 100 100 WNW 6 9 30.30 1026 9 14 0.00 0.00
11:53 pm 23:53 Clear 13 -10.6 12 -11.1 96 96 NW 6 9 30.31 1027 8 13 0.00 0.00

Powered by AerisWeather